ECMWFFLT2_925_thetae_003.txt.gz
Theta_e
330 328 329 331 326 321 324 323 317 320 328 325 313 311 314 312 312 314 313 314 320 324 329 334 335 334 334 335 335 335 338 340 341 348 354 352 348 349 351 351 349 348 351 354 354 352 352 350 348 348 349 349 347 345 344 343 342 342 341 340 339 339 338
330 329 329 330 328 327 323 317 319 327 330 327 318 313 314 314 312 313 312 312 315 315 319 330 336 335 333 335 336 336 338 341 343 347 352 354 351 349 351 354 350 346 349 353 353 352 350 347 345 346 350 350 347 344 344 343 342 343 342 341 341 340 340
328 331 328 325 328 330 327 323 328 327 317 316 317 313 313 314 314 314 313 313 313 312 316 328 333 334 334 335 336 336 335 339 345 347 349 352 352 348 349 354 352 346 348 354 354 351 349 346 342 344 349 349 345 344 344 343 343 343 343 343 342 340 339
328 329 325 318 320 327 328 328 331 327 320 316 316 315 314 313 313 313 313 312 312 316 324 331 333 335 335 333 335 337 335 335 342 346 347 351 351 350 349 350 352 350 350 354 353 348 346 342 340 345 348 345 343 344 343 343 343 343 343 342 341 339 339
325 322 323 321 321 324 323 320 320 322 321 321 320 318 316 314 312 312 313 312 312 322 334 334 333 334 333 333 334 336 336 334 337 342 347 351 353 354 353 350 350 351 352 352 351 349 345 341 343 345 345 342 341 343 343 342 342 342 342 342 341 340 338
317 319 328 328 327 327 325 321 319 320 320 318 316 315 315 315 313 311 313 312 312 326 337 333 333 333 332 334 334 335 336 335 335 338 343 351 355 355 355 354 352 353 352 349 349 348 345 343 346 345 343 343 341 343 344 341 341 341 341 342 341 341 339
322 327 331 328 327 330 330 327 326 327 324 317 311 311 313 313 313 314 313 311 315 330 337 332 334 335 333 335 335 336 336 336 338 339 340 350 355 355 355 352 350 351 351 348 347 346 344 346 348 345 344 344 341 342 344 341 340 340 339 340 341 341 340
327 328 330 330 330 329 327 327 329 329 326 322 320 319 318 316 313 314 314 311 317 333 339 334 336 336 334 335 335 336 336 337 340 341 342 351 356 359 357 352 351 350 349 349 348 346 346 348 349 347 345 344 342 342 342 341 339 338 337 336 337 340 341
318 320 323 323 325 326 325 327 330 329 329 328 326 324 322 318 314 315 315 312 318 336 343 337 336 336 333 335 335 336 337 336 338 341 346 354 359 360 358 354 352 348 349 352 351 349 349 350 350 348 345 344 342 341 340 339 338 339 338 335 335 338 339
312 313 315 315 319 324 325 327 329 329 329 328 324 319 316 315 315 316 315 313 320 338 343 337 336 336 335 336 335 335 336 336 337 342 348 354 360 362 360 356 352 351 352 355 353 351 351 350 351 349 346 344 343 341 340 338 337 338 338 337 337 337 337
314 314 319 325 325 321 318 321 325 327 329 329 325 317 312 315 316 315 317 319 320 330 338 336 336 336 335 336 335 335 337 337 337 342 348 353 360 363 362 358 354 355 357 356 354 352 350 351 351 348 346 343 342 342 340 337 337 337 337 337 338 338 336
323 325 328 331 329 322 319 320 322 325 328 328 324 316 317 323 317 312 322 328 321 324 335 335 334 336 336 336 336 336 336 337 337 342 348 351 354 360 365 360 356 359 358 355 355 353 352 353 350 348 347 344 342 342 340 337 337 337 337 338 339 340 338
327 331 329 330 330 326 325 325 323 324 326 325 322 320 325 328 318 315 329 335 326 328 336 334 333 336 335 335 336 335 335 337 336 340 348 350 349 355 364 363 359 360 358 357 357 357 357 354 350 350 349 345 344 343 340 338 337 337 338 340 341 341 339
325 329 328 329 328 326 326 326 326 328 328 326 326 326 329 330 324 325 335 335 332 333 336 335 334 335 336 336 336 334 334 335 335 336 343 349 349 352 359 363 362 360 360 360 361 361 358 353 351 352 349 346 345 344 340 339 338 338 339 341 342 341 339
319 327 329 327 328 326 323 324 327 329 327 327 327 328 329 329 326 329 333 330 331 335 336 336 335 336 339 337 335 335 334 334 335 333 335 343 348 349 354 361 363 362 363 363 363 362 357 351 352 351 348 346 345 341 339 338 338 339 339 341 343 342 339
315 325 327 324 328 326 319 319 324 326 324 324 326 328 330 328 326 328 327 323 328 335 335 335 336 337 338 337 334 335 336 334 334 334 337 342 346 348 352 359 363 364 364 364 364 361 354 352 352 349 348 347 343 339 338 337 338 339 340 340 341 341 341
315 323 325 324 324 319 314 318 324 326 327 327 327 329 332 332 330 327 324 325 332 335 334 334 335 334 335 335 334 335 338 340 339 340 343 343 342 344 350 356 361 363 363 364 364 360 355 352 351 348 347 345 340 338 336 336 338 339 340 339 339 341 342
315 321 324 323 319 313 316 325 330 330 330 329 328 328 330 333 334 331 330 332 334 334 334 334 334 334 334 334 335 337 338 340 341 341 342 343 342 343 347 352 357 360 362 364 363 360 355 352 351 348 345 342 338 337 336 337 338 338 337 338 339 340 341
316 319 322 318 315 317 324 331 333 331 331 331 330 331 332 332 333 334 335 334 333 334 334 334 334 334 335 335 336 337 336 339 342 341 341 344 346 347 349 354 356 360 362 363 361 360 356 352 349 347 342 339 338 337 337 337 339 338 337 337 338 339 339
319 317 317 318 322 329 334 336 334 332 334 334 330 328 331 333 332 334 335 334 334 334 334 333 334 333 334 335 335 335 335 338 341 340 340 343 345 347 351 354 357 360 362 360 358 357 355 350 347 344 340 338 338 338 337 337 338 338 338 338 338 338 337
320 315 314 320 325 328 332 336 336 334 333 334 330 326 329 334 334 333 334 335 335 334 333 332 332 333 334 334 333 332 334 338 341 341 339 341 344 348 352 353 356 358 358 357 357 354 352 348 344 341 339 337 337 338 337 336 337 338 338 338 338 337 338
322 317 314 318 319 319 326 334 337 334 331 333 334 328 328 334 334 332 334 335 334 334 333 332 333 335 334 333 332 332 333 337 340 340 339 341 344 349 351 353 355 356 356 357 356 353 349 345 341 339 338 337 337 337 336 336 336 337 337 336 336 336 337
320 317 315 317 317 318 327 335 336 333 330 333 334 327 324 332 334 331 332 333 333 333 332 332 335 335 332 331 332 334 334 334 336 339 341 342 345 350 351 352 354 355 356 357 355 351 346 342 340 338 337 337 336 336 336 335 335 335 336 335 334 335 337
319 318 317 317 318 322 330 334 331 330 333 334 331 320 321 329 333 332 331 333 333 333 333 333 334 334 332 332 332 334 334 333 336 342 345 345 347 350 351 353 355 356 357 355 352 347 343 340 339 338 337 336 335 335 336 335 334 334 334 333 334 335 335
317 317 316 316 320 329 334 332 330 333 333 329 323 319 326 332 333 333 332 333 332 332 333 333 333 334 333 331 332 333 332 334 340 345 347 348 349 349 349 353 356 357 356 355 350 344 342 341 339 336 335 335 335 335 337 336 336 335 334 332 333 334 334
317 318 317 314 319 332 336 331 332 332 328 324 324 330 336 335 332 332 333 332 332 333 333 332 332 334 332 331 333 333 330 337 344 345 346 347 346 346 351 356 357 356 356 353 347 342 341 341 339 336 334 336 336 337 338 338 338 337 334 332 331 332 334
319 317 316 314 319 332 335 330 333 332 329 331 337 339 337 333 332 334 333 333 333 333 332 333 333 333 332 332 334 333 334 340 344 345 347 348 346 348 353 356 355 354 352 347 343 341 340 339 337 335 334 336 337 338 339 338 338 338 336 333 332 333 333
319 314 317 322 328 334 333 332 336 335 334 338 340 337 334 333 334 333 332 333 334 334 334 335 335 335 334 334 334 337 340 341 342 346 348 347 346 348 350 349 348 347 346 345 341 338 337 335 335 335 336 338 340 342 342 339 339 341 339 334 332 332 333
328 324 330 336 336 335 332 333 336 335 333 335 335 334 335 335 334 334 333 333 334 334 335 336 336 336 335 334 336 338 339 340 343 347 348 346 345 344 342 342 344 343 343 343 338 335 338 341 342 341 341 344 348 348 346 343 342 343 341 338 337 337 338
334 334 336 336 334 334 332 331 332 332 332 332 334 335 337 337 337 336 336 336 336 336 336 337 338 337 334 335 339 338 338 341 344 346 347 345 343 339 338 341 344 340 340 340 338 341 346 348 347 344 343 346 348 346 346 346 344 343 344 344 343 341 338
331 331 334 334 333 333 332 332 332 330 329 330 333 335 337 337 337 337 338 339 339 339 338 338 340 338 335 336 339 339 340 342 344 346 347 344 342 342 344 346 345 342 340 339 339 343 346 346 345 343 341 343 344 343 343 344 343 344 345 344 341 338 334
332 331 334 334 332 332 333 332 330 329 329 330 332 334 335 335 335 335 336 337 338 338 337 337 339 338 335 337 340 342 344 346 346 347 349 349 349 347 346 345 344 342 340 339 339 342 343 344 344 342 338 337 338 339 339 339 340 343 344 340 337 335 333
332 334 335 334 332 332 332 330 329 329 329 330 332 332 332 333 334 335 336 334 335 336 335 336 339 339 338 341 340 338 342 345 345 346 349 349 347 344 344 344 345 344 343 341 341 344 345 343 342 341 339 336 333 332 335 336 337 339 339 336 335 334 332
330 334 335 334 333 333 332 330 328 328 329 331 331 330 330 331 333 335 335 334 336 338 337 338 340 340 340 341 338 336 340 343 343 345 346 344 341 341 344 344 344 344 344 342 343 345 343 341 340 338 338 337 332 327 331 335 336 337 337 334 333 331 330
330 331 330 330 332 333 331 329 328 329 330 332 330 329 329 330 330 332 334 335 338 340 339 339 341 341 341 339 337 339 341 342 342 343 341 340 340 341 341 342 342 342 341 341 343 343 340 339 338 336 335 335 333 330 332 335 336 337 337 334 331 329 328
328 326 325 326 328 329 328 327 327 328 330 330 329 327 328 328 328 330 332 335 339 341 339 339 340 341 340 337 337 341 342 342 342 340 338 338 339 336 336 340 342 340 339 340 341 339 337 336 336 333 331 332 332 331 332 334 335 336 336 333 331 329 329
324 322 322 323 325 325 326 326 326 327 329 329 327 327 327 327 328 328 330 335 338 338 337 337 337 338 337 335 336 341 342 340 339 339 338 338 336 332 333 337 339 338 338 337 337 336 334 333 333 332 330 331 332 332 332 332 333 334 335 334 333 331 330

ECMWFFLT2_925_thetae_006.txt.gz
Theta_e
332 331 330 334 328 322 325 324 317 321 329 325 313 312 314 313 312 314 314 314 320 326 332 335 335 334 335 337 334 333 339 343 348 353 354 350 349 351 350 349 354 358 356 353 355 357 356 356 356 356 355 353 352 350 349 348 348 347 343 341 339 338 337
330 331 330 332 331 328 324 317 320 327 329 327 319 313 314 313 312 314 313 312 315 316 321 333 338 336 335 336 335 333 338 343 344 349 355 360 360 358 356 357 356 357 358 356 356 357 356 356 356 355 354 353 351 349 348 349 348 345 342 341 340 339 339
329 332 329 326 329 332 327 323 328 327 317 316 317 314 313 314 313 314 312 312 314 313 318 330 336 336 336 338 341 338 335 340 341 342 353 364 364 359 362 363 358 355 358 357 356 356 355 355 355 355 354 352 350 348 347 348 347 344 342 342 341 341 341
329 330 325 318 320 329 330 328 331 328 320 316 316 315 314 313 314 315 314 313 314 318 326 333 336 338 338 340 345 343 336 336 342 341 346 358 360 355 357 359 358 355 353 353 354 355 356 356 355 354 353 352 350 348 346 346 345 344 343 343 342 342 341
326 322 323 321 321 324 324 321 321 322 322 321 319 318 315 314 314 314 315 313 313 324 340 342 338 339 338 337 340 344 339 333 339 343 344 354 360 356 356 359 357 352 349 352 354 354 356 357 354 352 351 352 350 348 346 345 344 344 345 344 343 343 341
317 320 328 329 328 328 325 322 319 320 321 318 315 315 315 314 313 313 315 313 314 328 344 343 338 336 334 336 337 338 339 336 339 344 343 352 361 357 355 356 352 349 351 356 356 354 353 354 352 350 350 351 350 347 345 345 345 345 345 345 344 342 340
323 328 332 330 329 331 331 327 327 327 324 317 311 311 314 314 314 315 314 311 317 333 344 341 340 339 334 335 338 335 337 339 339 339 339 350 364 360 352 352 350 350 354 356 356 355 354 352 351 348 348 350 350 345 343 344 345 345 344 344 344 342 340
329 330 332 332 330 331 328 327 330 328 324 323 319 319 320 315 313 314 313 311 319 337 349 343 341 341 334 334 337 334 337 339 338 342 345 354 368 366 356 353 354 352 353 356 357 357 355 354 352 348 347 350 348 343 341 342 344 344 343 344 343 342 341
320 322 324 325 327 327 325 326 330 328 328 328 324 326 327 318 313 315 315 313 320 338 351 345 338 338 335 335 336 335 340 341 337 344 349 355 369 369 362 362 362 357 356 359 360 357 355 353 351 347 347 349 348 343 342 342 343 343 342 343 344 343 342
313 315 315 316 320 323 324 327 328 328 331 327 322 322 320 315 316 318 315 314 323 340 346 338 337 337 335 337 336 335 341 343 344 349 351 358 373 374 367 368 368 365 363 362 361 358 355 353 351 349 348 348 346 343 343 343 343 342 340 340 342 343 343
315 317 322 327 326 321 318 321 325 327 330 330 327 319 315 318 321 318 320 324 325 332 340 338 338 338 338 340 339 337 342 344 349 356 355 357 369 372 371 371 368 368 368 365 362 359 357 355 352 351 350 348 347 345 344 344 342 341 338 336 337 339 340
324 327 332 332 329 323 319 320 323 325 329 329 325 317 321 332 323 314 329 340 326 327 340 340 340 344 347 347 341 339 345 346 344 353 356 352 354 365 374 373 367 367 368 365 362 358 356 354 351 352 351 348 347 346 344 343 342 341 339 336 337 338 337
327 330 329 330 330 328 327 326 324 325 327 325 322 320 328 336 323 318 337 346 331 332 339 336 339 345 344 344 340 337 342 344 343 350 355 349 346 356 370 373 371 370 368 366 362 357 354 352 351 352 352 349 348 346 343 341 339 339 338 338 338 338 338
324 327 328 330 329 326 326 328 328 328 328 326 325 325 327 332 328 330 344 346 338 335 336 334 339 343 342 341 339 337 339 342 346 347 346 345 344 351 362 368 371 372 367 365 364 360 355 353 353 353 352 350 347 344 341 338 336 336 336 338 339 339 340
319 326 329 328 328 325 323 325 329 330 328 327 326 327 327 329 329 331 340 341 339 338 339 339 342 349 349 343 339 341 343 343 343 343 340 341 344 347 356 363 366 366 363 363 365 364 358 354 355 354 352 350 346 342 337 334 333 335 337 340 341 341 342
313 323 326 324 327 326 319 319 325 326 325 325 325 329 329 328 329 332 331 328 333 339 340 337 340 345 345 341 340 344 346 343 342 343 345 346 347 350 356 362 365 365 363 364 366 363 357 355 356 354 352 349 343 339 335 333 334 336 339 342 342 342 343
312 322 325 323 323 319 315 318 325 327 328 328 328 330 332 333 335 332 325 326 337 345 340 335 336 338 339 342 343 342 344 346 345 346 347 346 347 351 355 360 365 367 363 364 365 361 357 356 356 354 351 345 340 337 334 336 337 338 340 343 343 343 344
313 320 324 323 320 315 317 326 330 331 331 330 328 328 331 335 338 336 332 336 343 342 337 337 338 337 341 345 345 341 342 346 347 345 345 346 345 346 349 351 358 365 365 363 363 360 356 354 352 351 348 341 337 336 336 337 338 338 339 341 342 344 344
316 319 322 319 316 319 327 332 334 332 331 331 331 332 333 335 338 340 337 337 339 338 337 339 337 338 342 342 342 343 340 342 345 342 342 347 345 345 348 349 355 367 370 367 362 357 354 352 350 347 343 339 336 336 337 338 337 337 339 340 342 344 344
319 317 316 317 321 328 331 333 334 332 333 334 330 330 333 335 336 339 338 335 336 337 336 336 336 338 339 337 339 342 340 339 339 335 335 340 340 342 350 354 361 370 371 367 361 355 353 354 353 348 343 339 338 336 337 337 336 338 341 343 343 343 343
321 315 313 319 325 329 330 332 335 334 335 335 332 327 332 339 337 335 337 338 336 335 335 336 337 336 336 335 336 337 335 336 337 334 334 336 337 343 350 351 355 362 365 365 361 356 355 356 354 349 343 339 336 335 336 336 336 339 343 344 343 342 342
324 317 314 318 320 320 326 332 337 336 334 336 337 331 330 337 337 333 335 340 338 337 336 336 337 337 335 335 336 335 334 335 336 335 335 335 335 341 346 347 352 357 361 364 362 358 358 357 353 348 342 337 334 333 333 335 338 341 342 341 341 341 341
322 318 316 318 316 319 331 339 337 334 333 335 336 327 324 333 337 333 334 337 337 337 335 336 339 338 334 334 335 334 334 334 334 336 339 338 337 342 346 348 353 357 360 364 363 359 357 355 349 342 336 334 335 336 337 338 340 342 342 342 341 341 340
320 320 317 318 319 325 337 337 332 333 335 338 334 322 323 337 343 337 334 335 337 337 338 337 337 336 335 336 335 332 332 331 333 339 342 340 341 344 345 348 353 357 360 363 362 358 355 351 343 336 333 332 334 338 340 340 340 341 341 341 341 341 340
318 318 316 316 322 333 339 333 332 334 331 331 327 324 333 346 344 338 335 333 335 338 338 336 335 335 336 336 335 333 332 332 335 338 339 340 341 338 338 345 353 357 360 362 360 355 351 344 337 333 332 332 333 338 341 340 339 340 340 340 340 338 338
318 319 318 316 322 336 339 331 332 333 330 326 327 334 343 343 337 335 336 333 334 336 335 334 335 335 333 332 333 333 332 336 340 339 337 339 338 336 341 350 356 358 359 358 356 350 342 336 335 334 333 334 337 341 342 340 338 337 336 337 337 336 335
321 319 318 317 322 335 337 333 337 340 339 337 340 341 340 336 334 336 335 333 335 338 336 336 337 336 336 336 337 335 335 340 344 343 345 347 344 344 351 357 356 355 351 348 348 345 338 334 335 335 335 339 342 341 342 344 342 340 340 338 336 335 334
325 319 321 325 331 336 334 336 340 342 342 344 344 339 336 335 336 336 335 338 341 340 341 341 339 338 339 338 339 339 338 340 342 343 349 353 350 349 354 354 351 348 344 343 343 341 338 335 334 335 338 341 341 342 346 346 344 343 343 340 337 337 337
334 330 334 337 338 337 334 336 339 338 337 338 337 337 337 338 339 338 337 340 341 340 341 342 339 339 338 337 339 338 335 337 342 345 348 351 349 348 349 350 348 347 345 343 341 343 344 341 341 343 342 340 342 347 347 344 342 342 339 336 336 337 337
338 339 340 337 336 337 334 333 334 333 334 335 336 337 338 337 337 336 335 337 338 339 340 341 340 340 338 337 337 336 336 342 348 350 350 351 348 345 344 345 345 344 343 343 344 348 347 345 346 347 344 343 346 347 344 342 342 341 338 335 335 334 335
336 339 341 336 335 337 335 333 333 332 332 333 334 336 337 336 334 334 334 335 337 336 338 342 342 338 333 335 340 344 348 351 351 351 351 349 347 345 342 341 341 340 342 344 345 347 347 343 342 341 339 339 338 337 339 340 341 341 341 339 336 336 336
336 339 340 335 331 334 334 333 333 332 331 332 333 333 334 334 334 334 334 334 334 333 334 340 342 337 335 340 346 349 350 350 349 351 351 349 348 346 343 341 341 342 344 345 344 346 347 342 337 336 337 336 331 331 335 337 337 340 344 341 338 338 337
340 339 339 337 336 337 335 331 332 333 332 333 333 331 331 332 332 333 332 332 333 333 333 339 344 344 344 346 347 347 347 347 347 348 347 344 343 345 345 344 342 341 342 344 346 347 346 342 339 337 338 336 331 331 334 335 336 340 343 341 339 338 337
340 338 336 338 341 341 336 330 330 332 332 332 333 331 330 331 331 331 331 332 334 336 336 339 345 347 348 346 343 344 346 347 347 347 347 344 343 345 346 346 345 344 344 345 346 345 344 341 339 338 338 335 331 331 335 336 337 339 340 339 337 335 334
335 331 331 334 337 338 333 329 330 331 331 333 332 330 330 331 330 330 330 331 334 337 338 339 343 346 346 344 342 344 346 348 349 349 346 345 344 344 345 345 344 343 344 345 343 341 340 339 337 335 335 334 332 332 335 335 336 338 338 337 336 334 332
328 325 326 328 330 330 329 328 329 329 330 331 330 329 330 329 328 328 329 330 332 335 337 338 341 344 344 341 341 344 344 346 348 346 342 341 340 339 341 344 342 341 343 344 341 338 338 337 333 331 332 332 332 333 333 334 335 337 337 337 336 334 332
323 323 324 324 325 327 326 326 326 327 329 330 329 328 328 328 327 327 328 330 331 330 332 335 338 341 341 339 340 343 343 344 345 343 340 339 336 332 336 342 343 343 344 343 339 337 336 335 332 331 330 331 332 332 331 332 334 335 335 335 335 334 333

ECMWFFLT2_925_thetae_009.txt.gz
Theta_e
330 330 330 330 327 323 326 327 321 323 334 330 319 317 319 316 317 320 317 317 325 331 339 345 344 348 350 344 348 350 348 348 349 350 350 348 349 349 347 350 353 354 351 348 351 351 353 357 357 359 360 359 358 354 350 349 347 346 344 343 343 342 340
330 330 329 330 330 329 326 320 323 330 328 327 324 318 318 317 316 318 315 315 321 320 325 341 346 344 346 346 348 349 348 349 348 350 351 348 350 349 348 350 353 354 351 347 351 351 352 355 356 358 360 358 357 353 351 349 346 345 345 344 342 340 339
330 331 328 326 329 332 330 323 328 329 319 318 319 316 319 320 317 318 318 317 318 318 324 337 340 341 345 345 346 350 351 350 348 352 351 348 352 352 349 351 354 355 351 348 351 352 352 355 355 357 358 357 356 353 351 348 346 345 344 344 342 338 337
330 330 326 320 323 330 330 329 330 327 322 322 322 319 322 323 319 319 320 318 319 328 338 341 339 342 348 347 350 352 349 349 349 352 352 350 353 356 350 350 355 355 351 348 351 353 353 355 355 357 357 357 355 352 350 349 346 346 345 343 340 337 337
326 323 325 323 323 326 324 322 322 321 323 325 326 321 319 322 322 320 320 318 321 337 350 346 345 348 349 352 357 354 348 349 350 351 351 352 355 355 352 351 354 354 351 348 351 353 353 354 355 356 356 355 354 352 350 349 347 346 345 343 339 338 338
317 320 329 330 327 329 327 323 321 321 323 320 319 319 316 318 321 321 323 320 323 342 352 348 347 349 348 353 356 355 348 348 353 354 352 356 360 357 354 352 353 354 353 350 351 353 353 354 356 356 356 355 352 351 350 349 348 347 344 343 340 339 339
323 326 330 329 329 332 330 328 329 327 327 319 315 319 320 317 317 321 323 319 328 354 359 348 347 346 347 352 351 351 349 348 353 354 351 357 360 357 353 351 351 355 353 351 352 353 354 354 355 355 355 354 351 350 349 349 349 346 344 343 340 341 341
327 330 331 329 330 332 327 327 331 326 326 322 322 332 331 320 316 319 319 319 333 364 363 349 350 346 342 347 346 348 352 350 353 355 353 357 360 357 354 350 350 351 352 353 353 353 354 354 355 355 354 352 351 349 348 348 348 346 344 343 342 342 341
319 321 326 325 325 328 325 329 330 328 331 327 325 334 333 323 320 322 323 321 335 364 366 350 352 349 344 344 343 348 355 353 354 360 360 360 360 359 355 353 354 351 354 357 354 352 355 355 354 355 353 352 351 349 348 346 346 346 345 344 344 342 341
318 317 322 324 324 324 325 329 329 329 331 326 325 324 321 322 323 324 325 325 334 357 361 348 350 350 348 348 347 351 357 354 355 365 367 365 363 362 359 357 356 354 356 360 356 352 354 356 355 354 352 351 351 349 347 345 345 345 345 345 344 342 340
327 327 335 339 333 323 320 323 325 329 329 329 329 319 317 328 331 325 330 333 330 342 352 348 349 346 348 356 357 353 355 355 359 368 372 370 365 361 360 358 357 356 358 362 359 354 353 355 355 354 352 352 351 349 347 345 345 345 344 345 344 342 340
341 345 343 337 332 325 320 321 322 326 328 328 326 318 324 342 330 318 334 343 330 335 347 351 352 350 351 360 360 356 360 363 362 366 375 378 373 367 364 366 365 358 357 361 361 355 353 353 353 352 351 350 351 348 345 344 345 344 345 345 344 342 341
339 339 332 330 332 328 327 327 323 325 327 325 322 323 339 349 327 321 339 345 336 338 344 345 353 355 353 354 355 356 360 364 367 365 367 373 374 372 370 372 372 363 358 361 362 356 354 354 353 351 350 349 350 348 344 342 343 344 344 344 344 342 342
330 331 330 331 330 326 326 328 328 328 328 326 325 326 335 343 337 341 352 347 343 346 342 342 351 356 355 354 354 354 357 365 374 371 365 364 367 371 375 375 372 366 362 360 360 358 355 354 353 352 350 349 349 347 344 342 342 343 344 344 343 343 342
324 329 329 327 328 327 323 324 330 330 328 328 329 328 329 332 334 347 357 347 346 348 344 346 354 358 359 357 356 361 363 363 363 362 360 359 360 367 376 377 371 367 365 361 361 360 356 354 354 352 350 350 349 347 344 342 342 342 343 344 343 343 341
318 326 329 326 326 325 319 319 325 328 326 327 328 330 333 331 327 336 344 340 346 353 351 352 357 359 356 356 361 367 364 360 360 361 361 361 360 363 373 379 373 367 366 365 363 359 356 354 354 352 352 350 346 343 342 342 342 340 340 341 340 338 335
318 324 326 324 322 319 316 320 326 329 329 330 331 332 335 339 337 336 337 340 351 359 354 351 354 355 352 353 358 360 361 361 359 357 354 356 359 357 365 377 378 370 366 364 361 359 355 354 354 353 351 347 342 341 341 341 341 340 339 340 338 337 335
317 325 329 325 319 316 320 331 334 334 334 333 332 332 336 344 347 343 343 347 350 350 350 351 353 351 350 353 355 357 365 371 365 358 357 358 360 359 361 369 374 371 366 360 356 356 357 355 353 352 349 345 342 341 340 340 340 340 340 339 339 338 337
322 329 331 321 317 322 333 339 337 335 336 338 338 339 340 343 348 350 349 350 352 353 353 354 354 352 354 361 365 360 362 368 368 364 365 365 365 365 361 358 363 373 373 360 354 357 358 353 350 348 346 343 341 340 339 340 340 339 338 338 339 341 340
326 324 322 320 325 337 341 339 338 337 341 344 342 342 347 345 349 354 351 350 354 358 357 356 355 353 355 361 363 354 348 351 352 349 353 359 359 358 359 356 356 363 366 362 358 356 352 346 345 344 342 340 339 339 338 338 338 338 338 337 338 339 341
333 321 320 325 329 333 336 338 341 339 338 342 339 337 344 348 346 354 360 355 353 355 354 351 350 349 353 354 352 347 344 345 346 343 344 347 350 353 357 354 350 352 357 360 356 350 345 344 343 340 338 338 338 338 337 337 337 337 337 337 337 338 341
339 324 321 326 321 321 333 344 348 340 332 341 345 338 342 351 347 352 363 359 350 350 351 350 354 358 358 351 345 345 344 342 344 345 343 342 345 349 351 350 352 355 357 354 348 343 342 341 339 338 337 337 337 337 337 337 336 336 337 336 337 337 339
333 322 321 324 319 324 343 348 344 338 332 342 349 338 338 350 351 347 352 354 355 353 350 355 364 362 355 347 341 342 339 336 340 346 350 354 352 346 347 352 352 349 348 346 345 343 339 336 335 336 336 337 338 337 337 336 336 336 336 337 337 337 338
329 325 324 323 321 334 353 345 335 336 338 342 341 330 335 351 354 350 347 349 357 354 348 355 364 362 358 354 346 340 339 340 345 351 359 364 355 347 349 350 348 347 347 346 344 341 338 335 335 335 336 336 337 336 335 335 336 337 337 337 337 337 339
325 325 323 321 325 343 352 339 332 336 335 333 329 330 346 357 352 349 343 343 350 350 348 354 357 354 355 352 343 340 342 347 351 351 353 351 343 345 349 345 345 345 344 344 343 341 338 335 333 333 335 335 335 335 334 335 336 337 337 338 337 339 342
328 327 325 320 328 350 349 334 336 341 338 337 338 348 359 353 344 346 344 341 345 347 347 350 348 345 345 343 343 344 346 352 359 363 361 355 349 349 346 344 343 341 340 341 341 339 337 335 333 334 336 336 335 335 334 334 336 336 337 338 339 341 342
335 331 328 323 334 356 350 340 353 357 349 352 362 362 353 344 341 345 344 345 347 346 346 348 346 345 345 345 349 350 347 353 365 371 370 365 355 347 344 343 342 340 340 339 338 338 337 336 336 335 335 336 335 336 337 338 338 338 339 339 341 341 341
341 334 335 334 341 350 343 344 359 358 352 359 364 355 346 343 344 345 346 348 349 347 348 348 347 347 347 347 350 348 348 355 364 367 365 360 353 347 344 343 342 340 338 338 337 337 337 336 336 335 335 336 337 339 342 342 342 342 342 341 343 343 342
347 343 348 347 344 343 338 340 350 347 345 350 350 344 344 344 345 346 348 348 348 348 349 349 349 350 349 346 345 349 357 365 365 362 358 352 350 350 346 343 342 340 339 338 337 336 336 335 334 333 334 339 343 344 344 341 340 341 339 337 338 338 338
351 350 349 343 342 343 339 336 339 338 338 341 342 344 343 342 343 345 346 348 350 348 346 349 351 351 349 350 353 359 367 368 361 357 353 347 345 347 347 345 344 342 340 340 339 337 336 336 337 338 339 343 344 342 340 339 338 337 336 334 333 334 335
351 353 350 343 340 342 339 337 337 335 334 336 340 346 344 341 341 342 343 345 346 344 349 355 357 355 357 365 368 367 367 365 360 359 358 353 346 343 342 345 346 345 344 344 343 342 340 339 339 338 338 338 336 335 336 336 336 336 335 333 332 332 334
350 350 346 340 338 338 336 337 338 338 337 337 338 340 339 338 338 339 340 341 341 343 352 358 359 360 363 367 367 363 361 360 359 359 357 352 347 343 341 343 345 346 346 346 344 342 340 338 335 334 334 332 331 334 337 336 335 337 336 335 335 335 335
350 347 347 347 343 341 338 335 337 341 342 339 338 336 335 336 337 337 337 339 340 343 350 356 361 362 362 362 361 357 355 355 356 354 351 346 345 343 342 342 344 344 345 345 343 341 339 337 336 335 334 332 332 335 338 336 335 338 339 339 339 336 335
350 347 352 353 350 351 347 337 335 340 340 338 339 338 334 334 336 334 333 335 340 343 346 353 361 363 361 359 356 354 354 354 352 349 346 344 343 343 341 341 343 342 342 343 344 342 340 339 337 335 334 334 335 336 336 334 337 340 340 340 338 337 337
347 340 342 344 347 353 351 340 336 340 339 338 339 336 333 334 334 333 332 334 338 340 342 347 357 362 360 355 354 353 353 351 348 346 344 344 345 342 340 340 341 341 342 342 342 340 338 336 334 332 330 330 333 335 335 335 338 340 340 339 338 337 337
333 330 333 338 342 346 344 339 337 337 336 335 334 331 331 332 331 331 333 336 339 340 339 342 348 355 356 354 354 357 356 351 347 346 345 345 345 343 341 340 341 343 344 342 340 338 336 334 333 331 327 327 330 334 336 337 338 338 338 339 337 334 334
325 328 331 335 339 341 338 336 334 333 333 334 332 333 334 334 333 334 337 339 340 338 334 335 340 345 350 351 351 354 355 351 347 346 344 343 344 344 343 343 343 343 342 341 339 338 335 332 330 329 329 330 333 334 334 335 336 337 336 336 336 334 333

ECMWFFLT2_925_thetae_015.txt.gz
Theta_e
327 324 328 329 325 324 326 324 320 323 332 329 318 319 328 323 317 324 325 324 334 335 336 355 354 343 346 348 345 344 347 351 350 350 351 350 353 355 355 356 356 356 355 354 355 355 354 355 356 357 356 356 357 357 357 356 356 356 356 356 355 355 355
326 324 326 329 326 331 327 317 322 329 327 332 329 321 323 322 319 326 324 319 324 324 330 354 358 350 352 350 346 345 347 350 350 351 350 350 353 353 355 356 355 356 354 353 355 355 354 355 355 356 356 356 357 357 357 356 355 356 355 355 355 354 354
326 327 324 323 325 328 325 322 327 327 318 322 326 320 320 320 320 324 324 324 326 325 336 348 347 358 361 348 348 348 346 350 350 349 350 349 352 354 355 355 355 355 354 352 354 355 354 355 355 356 356 356 357 356 356 355 355 356 355 354 354 353 353
325 327 322 317 320 324 325 326 327 326 324 323 321 320 321 319 321 326 325 322 325 336 356 356 346 365 361 347 350 349 345 348 347 347 349 348 351 354 354 354 354 354 352 351 353 354 355 354 354 355 356 356 356 356 356 356 355 355 355 354 353 352 350
322 323 323 319 320 323 322 321 320 320 323 324 323 323 323 321 325 330 326 321 329 354 372 365 352 357 351 347 350 346 344 347 346 347 348 348 351 351 352 353 353 352 351 350 352 353 353 354 353 354 355 355 356 356 356 356 355 355 354 354 352 351 348
316 321 330 328 325 326 323 320 321 321 321 321 319 318 322 323 323 328 326 318 329 361 372 365 359 353 348 348 346 345 346 345 346 348 346 347 350 349 350 351 350 351 350 349 350 351 352 352 353 353 354 355 355 356 356 355 355 354 354 353 351 350 345
321 325 330 327 324 326 326 324 324 327 328 323 315 315 320 321 320 327 327 317 329 371 382 372 366 355 349 348 345 346 346 344 346 346 344 347 348 348 348 348 348 350 348 347 349 350 350 351 351 352 353 354 355 355 356 355 355 354 353 352 350 348 344
326 326 328 329 327 324 323 325 326 326 328 326 323 329 329 321 319 323 322 318 336 380 389 371 360 350 345 345 345 346 345 344 345 344 345 347 347 348 348 347 349 348 346 346 348 348 350 350 350 351 352 353 355 355 355 355 354 354 353 351 348 346 344
318 320 322 323 326 325 325 330 329 324 329 330 332 337 330 320 322 325 321 321 338 373 377 354 344 344 343 343 345 344 345 345 344 344 347 347 346 349 348 348 351 351 350 351 348 347 349 349 350 351 351 353 354 354 355 355 354 354 352 350 348 346 344
315 316 318 321 324 327 329 333 328 325 330 326 326 328 319 316 325 326 324 328 340 360 359 339 337 343 343 343 343 343 345 345 345 345 346 347 348 348 348 349 351 351 352 352 349 347 347 349 350 349 351 353 353 354 355 354 354 353 352 350 347 345 343
316 318 327 335 334 325 320 323 324 325 327 326 331 327 318 323 328 326 334 339 331 337 347 341 342 343 341 344 344 344 347 345 345 346 346 347 347 346 348 349 349 350 351 351 351 347 345 348 349 349 350 352 353 354 354 354 355 352 351 350 346 343 341
320 325 334 338 334 322 319 322 323 324 325 327 329 323 323 334 326 320 344 353 328 329 346 346 344 343 341 346 345 344 346 345 345 346 346 348 347 346 349 348 348 350 350 351 352 347 345 347 347 348 350 350 352 354 353 354 354 352 351 348 343 341 339
324 327 327 329 329 326 324 324 323 323 325 325 322 323 334 340 323 320 347 355 333 333 345 343 342 341 340 344 344 342 343 344 346 347 348 349 348 347 348 349 350 350 348 350 352 347 345 345 346 347 348 350 352 353 354 354 353 352 350 345 341 340 338
324 324 324 327 325 324 324 324 325 324 325 326 322 327 338 337 329 335 351 350 341 338 337 337 338 339 341 344 343 343 345 346 348 350 350 350 348 347 349 349 350 351 349 349 350 349 345 343 345 347 347 349 351 351 353 354 352 352 348 343 341 339 338
320 322 326 326 323 325 322 321 327 325 323 325 322 329 337 331 331 343 346 342 342 340 341 344 342 343 347 346 344 346 347 348 349 350 350 350 349 349 350 353 352 351 349 347 350 353 348 344 345 346 347 349 349 350 352 352 352 350 346 343 341 338 338
317 321 324 324 325 325 319 319 324 323 323 326 327 336 341 333 336 346 340 334 336 342 351 352 345 345 345 342 344 346 345 346 350 351 351 352 353 355 356 357 355 353 353 354 357 355 347 344 346 346 347 349 349 350 351 350 350 348 345 343 340 338 339
317 323 324 325 323 318 319 329 335 331 333 335 335 342 345 344 350 350 338 335 341 348 352 349 344 345 342 339 343 345 346 348 349 351 355 356 359 362 364 364 365 365 367 364 357 348 343 345 348 347 348 349 349 350 350 349 348 347 344 342 339 338 339
318 327 327 323 318 316 327 348 348 338 338 337 336 339 341 345 353 350 343 345 351 349 348 348 349 348 347 347 348 349 351 352 352 354 359 362 365 369 372 374 373 373 371 361 350 346 345 345 346 348 349 350 349 349 349 348 347 346 343 340 339 339 339
324 331 326 316 316 324 344 354 343 337 338 338 341 342 341 344 348 349 349 349 350 348 345 347 350 350 353 357 356 356 354 354 357 359 361 367 371 373 378 382 383 382 377 363 349 348 350 346 346 348 349 349 347 347 348 347 345 344 342 340 339 339 339
326 325 319 316 322 337 351 345 337 340 340 338 340 337 337 342 345 347 348 345 346 347 341 342 344 344 348 350 349 350 349 349 354 357 361 365 366 367 373 382 388 385 375 361 351 349 350 349 348 348 348 347 346 345 345 345 344 343 341 339 338 338 338
333 330 322 324 329 333 341 342 338 339 336 336 339 334 334 343 345 345 345 341 342 344 341 341 339 337 341 342 339 342 345 348 352 349 346 352 357 361 360 355 353 352 349 350 351 350 351 350 348 348 346 345 344 342 343 342 342 341 340 339 338 338 338
341 335 322 327 328 325 336 347 345 339 332 335 342 338 338 346 348 347 346 342 341 342 340 339 338 338 340 339 340 348 350 352 356 352 348 357 367 364 351 341 340 341 345 350 351 350 351 349 347 347 345 343 342 340 340 340 340 340 340 339 338 338 338
343 336 326 330 331 330 340 350 346 339 334 338 342 334 333 345 350 347 345 340 338 339 338 339 341 340 341 340 345 353 351 348 356 364 367 369 365 353 345 344 345 346 347 349 348 348 348 345 345 345 343 342 341 339 339 340 340 339 339 339 339 339 338
344 344 334 330 333 340 348 347 340 336 337 344 341 327 328 346 352 346 345 346 345 345 344 343 342 342 345 345 344 346 348 350 355 362 366 367 362 352 346 346 346 345 346 346 344 344 345 344 344 343 342 341 340 338 339 339 339 339 338 338 339 338 337
342 341 333 328 335 346 347 341 336 336 339 346 342 331 336 349 348 342 343 345 345 345 343 341 341 342 344 344 344 345 351 356 355 354 352 350 351 349 345 344 344 343 343 343 343 342 343 343 342 341 341 341 339 339 339 338 338 339 338 338 338 337 337
342 343 340 333 337 346 339 334 337 339 339 341 339 340 346 348 343 340 338 339 341 341 343 343 344 345 347 352 358 359 358 359 359 357 352 350 350 348 344 343 343 341 340 341 341 340 341 341 341 341 341 340 339 338 338 337 338 338 337 337 337 336 337
341 348 344 332 335 343 337 338 349 349 343 343 345 347 347 344 344 342 339 340 341 340 343 345 345 349 353 358 363 364 362 363 361 357 355 356 354 349 344 342 341 340 340 339 338 338 339 339 340 340 339 338 338 338 337 337 337 337 337 336 336 337 337
343 347 344 338 343 346 337 340 351 346 340 345 349 346 343 342 344 344 342 344 343 341 345 348 348 354 360 360 362 366 368 368 365 361 357 352 347 344 343 343 342 340 338 338 338 338 338 337 337 338 337 338 338 337 336 337 337 336 336 336 336 336 336
344 344 346 348 352 348 337 335 339 336 336 340 339 338 340 343 344 345 345 346 344 344 347 350 352 361 366 365 368 371 370 368 366 362 357 348 343 343 342 342 343 341 338 338 337 335 335 336 336 336 336 337 336 335 335 335 336 336 336 335 335 335 335
343 341 344 346 343 340 334 330 330 331 332 333 332 333 336 339 340 343 345 347 347 346 347 351 356 359 362 366 368 367 366 365 361 359 357 349 342 341 341 341 342 341 339 337 336 335 335 335 335 335 335 336 336 335 334 334 334 335 334 334 335 334 335
343 344 347 344 337 335 334 330 328 329 328 328 328 330 331 332 334 338 341 345 347 348 350 356 360 359 360 364 366 365 367 369 368 372 375 361 344 339 340 341 341 340 339 337 336 335 334 334 335 335 335 336 336 336 336 335 334 334 334 334 335 335 335
346 346 345 341 335 336 338 333 328 327 327 327 327 328 328 328 329 331 332 333 335 339 345 351 354 355 358 363 369 373 375 374 374 378 375 360 345 341 340 340 340 339 337 336 336 335 334 335 335 335 336 337 337 337 337 337 335 335 335 335 335 335 336
344 340 339 340 337 337 337 335 333 331 328 327 328 327 327 328 330 332 332 330 328 328 332 336 337 339 344 352 362 369 373 373 375 373 360 346 340 341 341 340 339 338 336 336 336 335 334 334 335 337 338 337 335 334 334 334 334 333 333 333 334 335 334
342 339 339 340 338 337 334 331 332 332 329 328 329 329 329 330 333 336 336 336 333 328 327 331 334 333 335 341 349 359 368 372 372 364 348 337 337 341 341 339 338 337 336 336 335 334 334 335 337 339 338 334 332 331 332 331 330 328 329 331 331 330 329
342 340 343 342 338 336 334 330 330 330 328 327 328 329 329 330 331 332 331 333 334 330 327 330 333 333 334 336 342 353 359 355 349 346 341 337 338 340 340 339 338 336 336 336 336 335 335 336 338 339 336 333 332 332 331 329 328 328 328 328 326 325 326
340 338 340 338 332 328 327 328 329 328 327 327 327 326 326 325 325 326 326 325 326 327 326 327 326 326 329 331 337 348 353 345 338 338 338 338 339 340 340 339 338 337 336 336 335 335 335 337 338 336 334 333 332 331 329 328 328 329 328 327 325 325 328
337 333 330 327 326 326 325 324 325 326 326 327 328 328 328 326 323 323 324 323 324 324 326 327 324 323 326 329 332 339 344 341 338 339 340 339 339 340 340 339 338 338 337 335 334 335 335 336 336 334 333 332 330 328 329 329 329 329 328 328 328 330 332

ECMWFFLT2_925_thetae_021.txt.gz
Theta_e
320 322 322 323 322 318 320 320 317 320 326 324 318 317 321 318 315 320 323 322 325 329 332 339 342 339 340 341 340 340 342 344 345 346 347 346 346 347 349 350 351 352 353 354 355 354 354 354 354 355 356 354 353 354 353 353 353 353 353 352 352 352 351
319 321 321 323 323 322 321 316 318 324 324 326 325 319 319 318 315 319 321 318 319 319 323 337 345 340 339 343 342 340 342 345 345 346 347 347 346 347 349 351 353 352 352 354 355 354 353 354 354 355 356 354 354 354 354 354 354 354 353 352 352 352 352
320 320 320 320 322 323 321 319 324 323 316 320 325 320 318 317 316 317 319 319 319 316 319 330 336 340 344 346 345 343 341 343 344 344 347 349 347 348 349 350 351 352 352 354 355 354 354 354 355 356 356 355 356 356 355 355 354 353 353 353 353 352 352
320 320 317 314 316 320 321 322 324 324 319 319 322 319 316 316 316 316 318 319 319 321 328 333 334 343 351 349 350 348 341 342 345 344 346 348 348 349 348 348 350 350 350 353 355 354 354 355 355 356 356 356 357 356 356 356 355 355 354 353 353 352 352
316 317 317 316 316 318 318 318 318 319 320 321 320 320 317 315 316 317 318 316 316 326 339 341 340 345 349 351 353 352 346 342 342 345 346 348 349 349 349 349 349 349 350 352 354 354 355 355 356 355 355 356 356 356 357 357 357 357 355 354 353 352 352
313 316 320 321 320 321 319 318 318 318 320 318 316 318 318 316 316 318 318 314 315 329 343 342 345 345 342 346 348 347 347 343 342 345 344 348 350 349 349 349 347 348 350 352 354 355 355 356 356 355 355 356 356 357 357 357 357 357 357 355 354 353 354
318 320 322 321 319 323 322 320 323 322 322 317 312 314 317 316 317 318 317 314 317 338 354 343 341 344 341 344 347 344 344 343 343 343 342 346 350 349 348 347 347 349 351 353 355 356 357 357 357 356 356 357 357 357 357 357 358 358 357 357 355 355 355
323 321 321 322 320 321 319 319 324 322 321 320 316 321 324 319 316 316 317 314 316 342 371 354 343 346 343 343 344 342 344 345 343 342 343 347 350 350 348 347 349 351 352 355 357 358 359 358 358 358 357 358 358 357 358 358 358 358 358 358 357 357 356
318 317 318 319 318 320 318 320 324 321 324 324 321 329 329 320 316 316 316 313 315 341 373 358 345 344 339 338 339 340 344 348 344 342 346 349 351 351 350 350 352 351 353 357 358 359 360 359 359 359 358 359 358 358 359 358 358 359 358 359 358 358 357
315 315 316 316 317 320 319 321 323 321 324 323 320 323 320 317 322 322 315 313 320 342 362 351 345 344 341 341 341 339 343 345 344 345 347 350 352 352 352 353 353 354 355 357 358 359 360 358 359 359 359 359 358 358 359 358 358 359 358 359 358 358 357
316 316 320 325 324 319 316 319 320 321 323 322 323 320 315 319 325 321 321 324 322 331 346 348 347 347 345 347 346 347 352 348 344 347 348 349 351 351 352 353 354 356 357 357 358 359 359 358 358 359 359 358 358 359 359 358 358 358 359 359 358 357 357
323 323 327 329 326 319 317 318 318 320 322 322 322 318 321 332 323 313 330 346 327 325 342 348 349 350 350 352 351 352 357 352 345 346 347 347 348 349 352 353 354 356 357 357 357 358 358 358 358 358 358 358 359 358 358 358 358 358 359 359 358 357 355
325 326 325 326 325 322 321 320 319 321 322 322 320 319 328 337 322 313 337 356 336 330 340 342 343 348 349 354 355 349 349 349 345 345 345 346 346 347 350 352 354 356 356 357 357 357 358 358 357 358 357 358 358 358 358 358 357 358 358 358 358 357 355
322 324 323 325 324 322 321 321 322 322 322 322 322 323 328 333 326 323 342 355 344 335 336 338 344 349 345 348 349 342 341 345 346 345 346 346 345 346 349 351 353 354 355 356 356 356 357 357 357 357 357 357 357 356 357 357 357 357 358 357 357 356 354
319 322 323 323 322 321 319 320 322 323 322 322 322 323 327 329 330 332 338 343 342 338 338 342 349 352 348 345 344 341 343 346 346 346 346 345 346 347 348 350 351 352 353 355 355 355 356 357 357 356 357 357 356 356 356 356 356 357 357 356 355 355 354
317 320 322 321 321 321 317 317 321 321 320 320 321 323 328 327 328 332 330 327 332 338 340 340 343 347 346 346 346 347 346 345 344 347 347 347 348 348 348 350 351 350 352 353 353 354 354 356 356 355 356 356 355 355 355 355 355 356 355 355 355 354 354
318 322 323 320 319 318 315 317 322 323 322 323 322 324 329 330 329 330 326 325 332 342 343 340 339 341 343 347 349 349 351 350 347 348 349 348 347 347 348 350 351 349 348 349 351 353 353 354 354 353 354 354 353 353 353 353 354 354 354 354 354 354 353
320 323 322 320 318 315 317 323 326 324 324 324 323 322 326 329 330 333 333 334 342 346 343 340 342 344 349 351 347 345 348 348 347 347 348 348 346 345 347 347 348 349 349 349 351 352 353 352 350 349 349 349 350 350 350 351 352 352 352 353 353 353 352
322 324 321 318 317 319 326 334 333 327 324 324 325 326 328 329 330 335 338 339 345 349 343 340 344 348 350 349 345 342 340 342 344 345 345 346 345 345 347 347 348 350 349 349 350 352 350 348 347 347 347 348 349 349 349 350 350 351 351 352 353 352 351
323 323 320 319 323 328 333 336 332 329 328 326 324 323 329 335 332 332 336 336 341 348 344 339 342 343 343 343 343 341 338 339 342 341 341 343 343 345 347 347 350 352 350 349 350 349 347 346 347 348 347 348 350 348 348 350 350 350 351 352 352 352 350
326 322 319 322 325 326 330 334 335 334 332 330 328 323 329 340 337 333 337 339 341 345 340 337 338 338 338 340 340 337 335 336 338 339 341 342 342 345 346 348 352 353 351 350 349 346 346 347 348 348 347 347 348 348 349 350 350 350 351 352 352 350 349
328 323 321 324 322 321 328 334 336 335 332 334 336 330 331 341 339 334 337 341 343 345 340 337 339 338 337 339 340 339 338 336 335 337 340 340 342 345 346 348 352 352 352 352 349 348 349 349 348 347 345 345 347 349 351 351 351 351 352 352 351 349 348
327 324 322 324 321 323 334 338 336 334 331 334 336 326 326 339 341 335 337 340 341 344 341 340 341 339 337 338 340 341 340 338 338 340 342 341 343 346 348 351 352 353 353 352 350 351 351 349 346 344 344 346 349 351 352 351 351 352 351 351 349 348 347
327 326 323 323 324 329 337 337 334 333 332 334 331 321 323 340 343 336 337 338 339 341 341 340 341 341 342 343 342 342 343 343 344 345 346 345 345 348 350 351 351 352 352 351 351 351 349 346 345 344 345 348 350 351 351 350 351 351 350 349 347 346 346
327 327 325 324 327 335 338 334 333 334 332 330 326 323 330 342 340 335 337 335 336 339 338 338 342 345 347 347 346 345 346 346 346 347 347 348 348 348 349 349 349 349 348 348 349 347 345 344 345 344 346 347 348 348 348 349 350 349 348 347 345 345 345
330 330 326 325 328 333 334 331 332 333 330 327 329 332 337 338 335 336 337 334 334 339 341 344 347 347 345 346 348 349 349 349 349 348 346 347 347 347 347 347 347 347 347 347 346 344 343 343 343 343 345 346 346 346 347 349 348 346 345 345 344 344 344
339 337 329 325 329 333 332 332 336 338 335 332 335 338 338 337 337 340 341 340 342 345 347 349 349 348 348 347 348 349 350 349 350 349 348 348 347 347 347 346 346 347 347 346 344 343 342 342 343 344 345 346 346 347 348 347 344 343 343 343 343 343 343
345 346 338 331 333 334 331 332 337 340 339 337 338 340 341 341 341 342 343 345 346 347 348 349 348 348 348 347 348 349 349 348 349 349 349 349 348 347 347 345 345 345 346 344 342 341 341 341 342 343 345 346 346 347 347 343 341 341 342 342 343 343 342
346 347 342 336 335 333 329 330 333 335 337 338 339 340 340 340 341 342 343 344 343 344 346 346 345 346 346 346 347 348 347 347 348 348 347 347 348 347 346 345 344 344 345 344 342 341 341 341 341 342 344 346 347 347 344 341 340 341 341 341 342 342 342
344 341 337 334 334 333 329 327 327 328 329 331 333 334 335 334 334 336 337 338 339 341 343 343 344 344 343 344 345 346 347 348 348 348 348 347 348 349 348 346 344 343 344 344 343 342 342 341 341 342 343 346 348 346 342 340 340 340 340 341 342 341 341
341 344 341 334 332 332 330 328 327 327 327 327 328 331 332 331 331 332 333 334 335 336 338 341 341 341 341 343 344 345 346 347 347 348 349 348 349 350 349 347 345 344 345 345 344 344 343 341 341 342 342 344 345 342 340 340 340 339 340 341 341 341 341
338 343 342 336 333 333 331 329 328 328 328 328 328 329 330 330 330 330 331 333 333 333 336 339 339 339 340 342 343 343 344 346 346 347 347 347 348 348 347 347 347 347 347 346 345 345 344 341 341 341 342 342 342 340 340 339 339 339 340 340 340 341 340
336 336 336 337 337 336 333 331 329 327 328 328 327 327 328 328 329 329 328 329 330 331 334 336 337 338 338 340 341 341 343 345 345 344 345 346 347 347 346 346 346 346 347 346 345 345 343 340 340 341 341 340 339 339 338 338 338 339 339 339 340 340 339
338 336 335 337 340 341 338 334 330 327 327 327 327 327 326 325 326 326 325 325 326 328 330 332 333 334 334 336 337 338 340 343 344 343 343 344 345 345 344 344 344 345 345 345 344 343 342 340 340 340 340 339 338 338 337 337 337 338 339 339 340 340 339
335 333 331 332 335 338 337 333 330 327 326 326 326 327 327 327 326 325 325 325 325 326 326 327 329 330 330 331 332 332 335 338 341 342 343 343 344 343 343 343 344 344 344 343 343 343 341 340 340 341 340 339 338 337 336 336 336 338 338 339 339 339 339
329 326 327 328 328 329 329 329 329 328 326 325 324 324 325 325 325 326 326 326 326 326 325 325 327 328 328 328 329 330 331 333 336 338 340 340 341 342 342 343 344 343 343 343 343 342 340 340 340 341 340 338 337 337 336 335 336 338 339 338 339 339 338
325 323 323 325 325 325 325 324 325 326 327 326 325 324 323 323 323 324 326 326 325 325 325 325 325 326 327 327 328 329 330 331 332 334 335 337 338 339 341 342 343 343 343 342 342 341 340 340 340 340 340 338 337 336 336 336 337 338 338 338 339 339 338

ECMWFFLT2_925_thetae_024.txt.gz
Theta_e
324 322 322 323 320 318 321 319 315 319 327 325 314 313 316 314 314 316 316 318 323 326 333 339 337 336 335 335 337 337 340 345 349 351 351 351 353 353 354 356 357 357 358 359 359 359 360 361 360 360 361 361 361 361 363 364 363 364 365 365 364 364 364
324 323 322 324 322 322 320 315 316 324 328 326 319 314 315 316 315 315 314 315 317 317 322 333 337 335 334 335 335 335 338 344 350 350 350 352 352 353 354 356 358 357 358 359 360 358 359 359 360 360 361 361 362 361 363 364 364 364 365 365 364 364 365
322 324 322 320 322 324 322 320 324 323 318 317 318 315 315 315 315 315 313 313 315 314 318 328 334 335 335 335 334 334 335 344 350 349 350 352 352 352 354 355 357 359 357 358 360 359 358 359 360 360 361 361 362 362 362 363 363 363 364 365 365 364 365
322 322 319 314 316 322 323 323 326 325 318 316 316 317 316 315 314 315 314 313 314 319 326 331 335 337 336 335 336 336 334 339 348 349 350 352 352 353 353 353 356 358 356 358 360 358 358 359 360 360 360 360 361 361 362 363 363 363 364 365 365 365 365
319 317 318 316 316 319 318 316 317 319 320 319 318 317 316 315 314 314 315 313 313 323 335 336 336 337 336 336 336 336 335 335 341 348 350 352 354 354 353 353 355 355 356 358 359 358 358 358 359 359 359 360 360 360 362 362 362 363 364 364 365 365 365
313 315 321 322 321 321 320 317 316 317 318 317 315 316 316 315 314 313 315 313 314 327 338 337 336 336 334 335 334 334 336 333 336 346 349 352 355 354 353 353 352 353 355 357 358 358 358 358 359 359 358 360 360 360 361 362 361 362 362 363 365 365 365
318 321 324 323 321 323 323 322 321 321 320 315 311 312 315 314 314 314 314 312 318 331 337 335 336 337 334 334 335 334 335 333 338 348 349 352 356 355 352 351 350 352 354 356 358 358 359 358 359 359 359 359 360 360 360 360 361 361 360 362 364 365 366
323 324 325 325 324 323 320 320 323 322 320 319 317 317 318 315 313 315 314 312 318 329 341 340 336 336 334 333 334 336 339 338 342 350 351 352 356 356 353 350 351 351 353 357 359 359 361 360 359 361 360 359 360 360 360 360 361 361 360 361 363 366 367
319 320 321 321 321 322 319 320 323 323 322 323 321 320 320 315 313 315 315 312 317 330 345 345 340 337 334 333 333 336 344 345 345 352 353 353 356 358 355 353 352 353 355 359 361 362 364 362 361 362 360 360 360 360 360 360 360 361 361 361 362 365 366
316 315 315 315 317 320 321 321 322 322 322 322 319 316 314 313 315 316 314 313 319 332 343 341 339 339 333 333 334 333 341 347 348 354 356 356 358 359 356 355 355 356 359 361 362 364 365 363 363 363 362 361 361 361 361 360 359 361 361 361 362 363 366
316 316 319 324 323 319 317 319 321 321 322 323 319 314 310 314 316 314 317 319 320 327 336 336 335 335 334 335 334 332 340 347 350 356 359 357 359 359 358 357 357 360 363 364 365 366 367 365 364 364 363 362 361 362 362 361 360 361 362 362 362 363 365
322 324 326 328 326 320 318 319 319 320 323 322 318 313 313 319 315 311 321 327 319 323 333 335 333 335 334 334 333 333 338 343 348 358 360 356 356 358 358 359 361 363 365 366 366 367 367 365 365 365 364 363 363 364 363 363 361 361 362 364 364 364 365
327 328 327 328 328 325 324 323 320 321 322 321 318 316 319 321 315 313 323 328 323 327 333 332 334 334 333 333 334 332 333 337 349 360 360 355 354 357 358 360 362 364 365 367 367 366 367 366 365 366 365 365 365 365 365 364 363 362 363 364 365 365 366
326 329 328 329 326 324 323 323 324 324 323 322 321 320 323 322 319 320 326 327 328 332 331 330 333 333 333 333 333 332 332 338 350 358 358 355 352 355 358 360 361 362 364 366 366 366 367 366 366 365 365 365 365 365 365 365 364 364 364 365 366 366 366
322 327 329 328 327 324 321 321 325 326 324 323 322 322 323 322 321 324 325 324 327 331 332 332 331 332 333 332 333 334 334 337 347 353 353 352 351 353 356 359 360 361 363 365 365 366 365 366 366 366 366 366 366 364 366 365 365 364 364 366 367 367 367
318 323 325 325 326 324 319 318 323 323 322 322 322 322 324 322 321 323 320 318 324 330 331 330 331 332 332 334 335 334 335 338 345 350 352 352 353 354 356 359 360 360 361 364 365 364 364 366 368 367 367 367 366 365 365 365 365 364 364 365 367 367 367
319 323 324 322 321 319 315 318 323 325 324 325 324 324 326 326 324 322 318 320 327 332 329 329 332 330 330 336 337 336 341 348 351 351 351 352 353 354 357 360 360 359 361 362 363 364 364 367 367 366 367 367 366 366 365 365 365 364 364 365 366 367 368
320 322 323 322 318 315 316 323 327 327 326 326 325 324 325 327 326 325 324 327 331 331 329 331 333 331 331 338 341 342 347 355 357 354 351 351 353 355 356 358 359 360 360 361 363 365 365 364 365 365 365 365 366 365 365 365 365 364 365 365 366 367 367
323 324 324 321 318 318 324 330 331 328 327 328 326 327 328 327 327 327 328 330 331 331 332 333 334 335 336 339 344 348 348 350 353 352 350 352 354 355 357 358 358 359 360 360 363 364 363 363 364 365 365 364 364 364 365 366 365 365 365 366 366 366 366
326 324 322 321 322 326 329 333 333 330 331 329 325 323 325 327 328 328 329 330 329 330 332 332 332 336 340 343 349 351 348 346 346 345 346 350 351 353 356 356 358 359 359 359 362 363 363 362 363 364 362 361 362 364 365 365 365 365 365 366 366 365 365
328 325 324 325 324 325 330 334 337 337 336 336 331 325 327 328 328 327 329 330 329 329 330 330 334 340 342 343 344 344 343 344 343 341 342 345 348 351 352 353 357 360 358 359 362 363 361 360 359 360 358 358 362 364 364 364 365 365 365 364 364 364 364
329 328 329 329 321 320 329 337 339 339 336 338 340 333 331 333 330 328 330 331 331 332 330 332 340 344 341 338 336 336 340 342 342 341 342 343 345 347 350 353 358 359 357 358 359 359 358 358 358 359 358 360 363 364 363 364 364 364 363 363 364 364 363
325 327 329 329 322 324 337 341 339 337 334 336 338 329 326 332 332 330 328 329 334 334 331 337 345 343 336 333 333 337 342 341 340 341 344 345 346 349 352 354 356 357 357 358 358 359 361 362 362 361 361 361 362 363 363 364 363 363 362 362 363 362 361
324 325 327 327 323 330 342 340 335 335 335 337 334 322 323 337 344 340 336 332 332 333 334 342 345 340 335 335 339 343 343 341 341 344 347 348 348 350 352 354 357 360 360 360 360 362 363 363 363 362 361 361 362 363 363 362 361 361 361 361 361 360 359
323 324 324 324 327 337 342 337 335 337 335 334 329 324 332 345 346 343 344 341 335 334 339 344 344 341 344 347 347 346 346 347 348 348 349 353 353 353 355 358 360 360 360 361 363 363 362 362 361 360 360 362 363 363 362 361 361 361 360 360 359 357 357
322 324 324 322 326 337 340 335 335 337 333 330 332 336 343 346 342 341 342 342 341 342 344 344 344 345 347 348 347 348 350 351 352 351 350 353 355 356 358 359 359 359 361 363 363 362 361 360 360 360 362 363 363 362 361 361 361 360 358 357 356 355 354
324 324 324 323 327 336 338 335 338 340 337 336 341 345 345 343 343 345 343 341 342 344 345 347 348 349 350 350 350 352 353 353 354 354 354 354 355 355 357 358 358 360 362 361 359 358 357 358 359 360 361 361 361 361 361 360 357 356 356 355 354 353 352
324 322 325 329 333 338 336 335 339 340 338 339 342 345 345 345 346 347 348 348 346 346 350 353 352 353 355 354 354 355 354 354 354 354 354 354 353 353 355 356 357 358 358 357 356 355 355 357 358 359 360 361 361 360 359 356 354 355 354 353 352 352 350
331 329 333 339 340 339 335 335 337 335 333 334 338 341 344 346 346 347 350 351 349 349 351 352 351 352 352 352 353 354 353 354 354 353 353 352 352 353 353 355 355 355 355 356 355 355 355 356 357 358 359 361 361 358 355 353 353 354 353 352 351 350 349
337 336 340 341 338 336 334 333 333 332 331 333 335 339 341 341 343 345 346 347 348 349 349 350 350 350 349 349 351 351 352 354 354 355 355 354 354 355 355 355 355 354 355 356 356 356 356 355 356 358 359 360 359 355 353 353 353 352 352 351 351 349 348
333 336 341 340 336 336 335 332 332 331 331 332 334 337 339 338 339 339 340 342 343 344 345 347 347 345 347 349 350 350 352 353 353 355 355 355 355 357 357 357 356 355 356 357 357 357 356 354 354 356 357 357 355 352 352 352 352 351 351 350 349 348 347
336 339 340 337 334 334 333 333 333 332 331 331 333 333 334 334 335 335 335 336 337 339 341 344 344 343 344 345 346 348 350 351 353 354 354 354 355 356 357 358 358 357 357 357 357 356 355 354 353 354 354 353 352 351 351 350 350 351 350 349 348 347 346
338 339 339 337 334 333 333 333 335 334 332 331 332 332 332 331 332 332 332 332 333 335 337 341 343 344 344 344 345 345 347 350 352 352 352 353 354 355 356 357 357 357 358 357 356 355 354 353 353 352 352 350 349 349 349 349 350 350 349 347 347 346 345
338 338 339 338 337 337 338 337 335 332 331 330 331 331 331 331 331 331 331 331 332 332 334 336 339 341 342 343 343 344 347 349 350 350 350 351 352 354 353 354 355 356 356 356 356 354 353 352 352 351 350 349 348 347 347 348 349 349 348 347 346 344 344
336 335 336 336 337 338 337 335 333 331 330 328 328 329 329 329 331 330 330 330 331 331 331 333 334 336 338 339 339 340 342 344 346 349 349 348 350 351 351 351 353 353 353 353 354 353 352 351 350 350 349 348 347 346 346 347 348 349 348 347 346 344 342
333 330 332 334 334 332 330 329 330 332 332 329 327 327 327 327 328 328 329 329 329 330 330 330 331 333 333 333 334 336 337 338 341 344 345 346 347 348 349 351 352 351 351 352 351 350 350 350 350 349 349 348 347 347 346 346 347 348 347 346 345 344 343
330 329 330 331 330 328 327 325 327 329 330 330 328 327 327 327 327 326 327 328 327 328 328 327 328 330 331 329 331 332 333 333 335 337 338 340 342 343 346 349 350 350 350 349 349 348 348 348 349 349 348 347 347 346 346 346 346 346 346 346 344 343 343

ECMWFFLT2_925_thetae_027.txt.gz
Theta_e
326 324 322 325 321 317 320 320 315 319 327 324 313 312 315 314 312 314 314 314 320 326 331 336 339 338 338 339 338 338 339 339 338 339 342 347 350 350 352 358 361 359 359 361 361 360 361 361 360 359 358 359 360 361 364 367 368 369 370 370 369 368 368
326 326 323 325 323 322 320 314 317 325 327 325 318 313 314 314 313 314 313 312 315 316 320 333 340 338 337 340 338 337 338 337 337 340 342 346 351 353 356 359 361 360 360 361 362 361 360 362 362 362 360 361 361 361 364 368 368 368 369 369 369 368 368
327 328 324 321 322 325 322 319 325 324 315 314 316 313 312 314 314 314 313 312 313 312 317 329 336 337 338 340 339 338 337 337 336 339 343 348 351 354 357 359 360 361 360 361 363 361 360 362 363 364 363 363 362 362 365 367 368 368 368 368 369 368 369
326 326 322 316 317 323 323 323 326 324 317 315 315 314 313 313 313 314 314 313 313 317 326 332 336 339 340 339 340 339 336 337 337 337 340 345 348 353 357 358 359 361 360 361 363 361 360 362 364 365 364 364 363 363 365 366 367 368 367 367 369 369 369
323 320 321 319 318 320 318 315 316 318 319 319 318 316 314 313 313 313 315 313 313 324 335 337 339 340 339 339 340 339 337 336 337 337 339 341 346 352 357 358 358 359 359 361 363 362 360 361 364 365 364 364 362 362 364 365 366 367 367 367 367 369 369
315 317 325 326 323 323 320 316 314 316 318 316 314 314 314 313 313 312 315 313 314 328 337 337 337 338 337 339 339 337 337 336 337 338 338 340 347 353 357 357 356 358 360 360 362 362 359 360 364 364 363 363 360 361 363 363 364 365 365 365 367 369 369
319 323 327 326 324 326 325 322 321 321 319 314 310 310 312 312 313 313 314 312 317 332 339 336 337 338 336 337 338 337 336 336 337 337 337 342 351 356 356 352 353 358 359 361 363 363 360 361 364 363 361 361 359 359 361 362 363 363 362 363 366 369 370
324 325 326 327 326 325 322 321 324 322 320 318 317 317 316 314 311 312 313 311 316 331 341 338 338 338 336 336 338 337 336 337 337 337 339 342 350 358 358 353 354 356 358 362 365 366 365 364 364 364 362 360 359 358 359 360 361 361 361 361 364 369 371
318 318 320 321 321 322 320 321 325 323 322 323 322 320 320 316 312 313 314 311 315 331 341 338 336 338 337 336 336 336 337 337 336 337 340 343 351 360 361 357 356 356 359 367 370 371 371 367 365 365 362 361 361 359 359 359 360 360 360 359 363 369 371
315 313 314 315 316 319 320 322 323 324 324 322 318 315 313 313 314 315 313 311 318 334 339 336 336 337 337 338 337 336 337 337 336 338 343 349 359 367 363 358 359 360 366 370 371 373 372 366 365 366 364 362 361 361 361 359 358 360 361 360 361 366 370
317 316 318 323 323 318 315 318 320 322 324 323 320 313 309 312 314 313 316 318 319 328 336 336 336 336 337 339 337 336 338 338 337 345 357 359 363 367 364 359 361 365 369 370 370 371 370 366 365 366 365 364 363 364 363 359 358 361 362 361 361 365 369
323 325 326 328 327 320 317 318 318 320 323 323 319 313 313 317 312 308 319 326 319 322 334 337 336 337 337 338 337 336 338 338 335 345 363 366 364 365 363 361 363 365 367 369 369 370 370 368 366 367 366 364 364 365 364 362 360 361 363 363 362 364 368
327 330 329 328 327 325 323 322 321 321 322 320 317 315 319 322 314 311 322 327 322 326 333 333 334 338 337 337 338 336 335 338 337 339 355 363 364 364 364 362 364 366 367 370 371 370 370 369 368 368 368 366 366 366 366 364 361 361 364 365 365 365 368
325 328 328 329 327 324 324 325 325 325 324 322 320 320 323 323 320 320 325 327 326 330 331 332 334 336 336 336 337 335 334 337 338 336 342 351 354 359 364 365 365 366 368 371 372 371 371 370 370 370 369 368 368 367 367 366 363 362 365 367 367 367 368
322 327 329 329 327 324 321 322 327 326 325 324 322 322 324 323 321 324 325 324 326 330 333 333 334 335 337 336 337 337 337 337 337 336 336 339 339 344 355 364 366 368 370 373 373 373 372 371 371 371 370 370 369 368 368 367 365 364 366 368 369 368 369
319 326 328 327 327 325 319 318 324 324 323 323 323 324 325 322 320 322 320 317 322 329 332 332 334 335 335 336 336 337 337 337 337 336 336 337 337 337 346 360 368 370 370 373 374 372 371 371 372 372 372 372 370 369 370 369 366 365 368 370 371 371 371
319 325 327 325 325 322 317 318 323 326 326 325 324 326 328 326 325 322 318 319 326 331 330 330 333 333 334 336 336 337 340 341 340 338 336 336 336 338 348 359 366 369 368 370 372 373 372 371 372 372 372 372 371 370 371 371 368 367 369 372 372 373 373
318 323 326 325 321 317 319 326 328 328 328 327 326 325 327 329 329 326 325 327 330 331 329 329 331 332 334 336 337 336 339 341 340 337 337 337 335 336 345 350 356 366 369 369 371 374 374 371 371 372 371 372 372 371 371 372 370 369 371 373 374 374 374
319 323 325 322 318 320 326 331 331 330 329 328 329 328 329 329 329 330 330 330 330 330 330 330 331 332 333 333 335 335 335 335 337 336 335 340 337 336 342 347 353 365 371 368 370 374 372 370 370 372 372 372 371 372 373 373 371 371 372 373 375 375 374
324 323 322 321 323 328 331 331 330 329 330 330 328 328 330 330 329 330 329 330 330 330 329 329 332 333 331 332 334 334 332 332 334 332 333 337 337 335 342 351 360 370 369 367 370 372 370 369 370 371 372 372 372 372 374 373 372 373 373 373 375 375 374
326 320 318 322 325 325 327 333 335 334 334 335 333 330 332 334 332 332 331 331 331 331 330 330 330 331 333 334 334 332 332 333 333 331 332 334 334 336 343 351 363 370 368 367 371 371 369 368 369 371 371 371 372 373 374 373 373 374 373 374 375 374 374
326 321 319 324 323 321 327 335 339 338 335 336 338 334 332 334 332 331 331 331 330 330 331 331 331 332 333 333 334 333 332 333 333 332 334 334 333 336 344 354 363 369 368 368 370 370 368 368 370 371 370 371 373 374 374 373 373 373 373 373 373 373 372
325 322 321 323 323 326 337 342 339 337 334 335 337 329 327 335 341 340 339 340 339 337 334 331 332 333 331 330 332 333 333 334 335 333 337 338 335 338 349 357 364 368 367 367 369 368 368 370 372 370 369 371 373 373 374 374 371 371 371 371 371 371 371
324 323 322 322 323 331 343 342 337 336 335 336 334 323 325 342 351 347 346 347 346 346 345 339 333 332 332 331 330 332 334 334 334 335 338 339 337 341 351 357 362 365 366 368 370 369 369 371 370 368 367 370 372 372 372 371 368 368 369 369 370 369 369
322 322 321 321 324 334 341 338 336 337 335 334 329 325 335 350 350 346 348 349 346 347 348 345 338 332 331 332 331 334 337 336 335 338 343 344 343 345 351 358 363 366 367 369 369 367 368 369 367 366 369 371 370 370 368 366 366 366 368 369 369 368 367
320 321 321 319 324 336 341 336 335 336 333 330 331 337 346 349 345 345 348 347 348 349 347 346 345 338 331 329 331 337 344 347 349 348 348 348 350 352 358 362 364 365 365 366 367 367 368 367 366 367 370 370 368 367 366 366 367 368 368 368 367 365 364
322 319 319 319 324 336 340 335 336 339 336 334 339 343 343 341 342 346 346 346 350 351 347 345 346 342 336 333 336 343 349 353 353 354 354 355 357 360 362 363 363 365 367 368 368 369 367 366 367 368 368 368 367 367 368 368 367 367 366 365 364 362 361
321 316 319 326 331 337 338 337 339 341 339 339 341 341 341 342 344 345 346 347 349 351 350 346 343 341 342 346 350 354 357 356 356 358 360 362 362 362 361 362 364 366 368 366 365 364 364 365 366 367 368 369 369 368 368 366 364 364 364 362 360 359 358
327 325 331 338 339 338 337 337 339 339 338 339 340 341 343 345 344 345 348 348 347 349 350 347 345 347 351 354 355 356 358 358 359 360 361 361 361 360 360 362 364 363 363 363 363 364 365 366 366 367 368 368 368 366 365 362 362 362 361 359 358 356 356
340 339 341 341 338 337 336 335 336 336 336 337 339 341 342 343 343 345 346 346 347 348 348 348 349 352 353 354 353 354 357 358 358 359 360 359 359 359 360 361 361 361 362 363 364 366 366 365 365 366 365 364 364 363 361 360 360 359 358 357 356 354 354
339 340 342 340 338 338 336 336 336 335 334 334 335 338 341 340 340 342 344 346 347 347 348 351 353 353 354 355 356 356 358 359 358 359 360 359 357 358 358 358 359 360 360 360 361 364 364 363 361 361 360 360 360 359 359 359 358 357 356 354 353 352 352
340 342 344 341 339 339 337 336 336 334 334 334 334 335 337 337 336 339 342 344 345 346 347 350 351 351 352 354 356 356 356 356 358 359 360 360 360 359 359 359 359 361 361 360 360 362 362 360 358 357 357 357 357 357 357 357 357 356 354 352 352 351 350
342 343 343 339 339 339 337 336 336 334 334 335 334 334 334 335 335 336 338 340 341 342 344 346 347 348 350 351 352 352 352 353 355 355 357 358 360 362 362 361 360 361 362 361 360 360 359 357 357 356 355 355 355 356 356 356 356 355 353 352 351 350 349
341 342 341 340 340 339 336 335 335 333 332 332 333 332 332 332 333 333 334 334 335 336 337 340 342 343 345 347 347 347 349 351 352 352 354 353 354 357 360 360 360 361 361 360 360 359 357 357 356 354 354 354 354 354 355 356 355 354 353 352 350 349 348
340 341 340 340 340 338 337 335 334 334 332 331 331 331 331 330 331 331 331 331 332 332 333 334 335 338 339 340 341 342 344 346 349 351 352 351 351 353 356 358 359 360 359 360 359 358 357 356 355 354 354 353 353 354 355 355 354 353 353 351 349 348 347
338 338 338 338 337 335 334 333 332 332 332 331 330 329 329 329 330 330 330 330 330 330 331 330 331 334 334 334 335 336 337 339 342 346 349 349 349 351 354 356 358 358 358 359 359 358 357 356 354 354 354 353 354 354 353 353 353 352 352 349 347 347 345
334 335 335 334 333 332 331 330 328 328 329 330 330 329 328 329 329 328 328 328 327 327 328 328 328 330 331 330 331 333 333 334 336 339 343 345 347 348 350 352 354 355 355 355 356 356 356 355 354 354 354 353 353 353 351 351 352 352 350 348 345 344 345

ECMWFFLT2_925_thetae_030.txt.gz
Theta_e
329 327 326 327 323 317 320 319 314 316 325 321 312 311 314 312 312 315 314 314 320 326 330 335 338 339 340 342 341 340 344 346 346 350 352 350 350 350 350 354 359 361 361 361 361 361 360 360 359 359 359 359 360 362 365 368 369 369 369 366 365 365 365
328 328 326 328 325 323 319 313 315 323 325 323 317 311 311 312 313 314 312 312 315 316 321 332 339 338 339 341 340 340 344 345 345 350 353 351 352 352 353 357 361 361 361 362 363 360 358 359 359 359 359 359 360 361 364 367 369 370 370 368 365 364 365
327 329 325 323 324 327 322 318 323 322 313 312 314 311 311 312 313 314 312 312 314 313 317 328 335 337 339 341 342 341 341 342 343 348 354 355 354 354 353 355 360 361 359 360 363 361 359 359 359 360 361 359 359 361 363 365 368 370 370 368 366 364 365
328 326 323 317 318 324 324 322 326 323 316 313 312 312 313 313 313 313 312 312 313 318 326 331 335 340 341 341 344 343 341 341 341 345 353 355 355 355 353 352 356 358 356 356 360 361 360 360 360 361 361 359 358 360 363 365 367 370 371 370 368 366 365
324 320 321 320 318 321 320 316 316 317 317 318 316 314 313 313 313 313 313 312 313 323 336 337 340 345 341 341 346 345 341 340 340 342 350 353 354 356 356 353 354 355 356 357 359 361 361 360 361 361 360 359 357 358 362 365 368 370 371 371 370 367 366
316 318 326 327 326 325 322 317 314 315 316 315 312 313 313 313 313 312 314 312 313 326 339 340 342 344 340 340 344 344 340 340 341 343 348 352 355 357 355 353 351 353 359 361 358 360 362 361 362 362 360 359 356 357 362 364 367 370 371 371 370 368 367
321 326 330 328 327 328 327 323 322 321 319 313 308 309 311 312 312 313 313 310 315 332 346 344 342 344 340 339 344 343 340 340 341 342 345 351 356 357 353 348 348 353 358 359 356 358 363 363 363 363 362 359 357 359 362 363 366 369 369 370 370 368 367
326 328 330 330 330 329 325 323 325 323 319 318 315 315 315 312 310 311 312 310 316 332 350 348 344 343 338 338 342 342 340 341 341 342 348 356 359 358 353 350 353 355 357 359 358 361 366 365 364 365 363 361 360 360 361 362 364 368 368 368 369 369 368
319 321 323 322 324 326 324 324 326 325 323 323 320 319 319 314 311 312 312 310 315 330 348 349 343 341 337 337 339 338 342 344 341 346 356 361 364 364 359 358 361 358 358 361 366 371 372 367 365 367 365 363 363 361 361 361 363 366 367 366 367 369 368
314 315 314 314 317 322 323 325 326 325 325 323 317 314 312 311 314 315 312 311 319 334 345 343 340 340 341 343 338 336 342 346 349 360 365 365 370 372 369 367 365 363 363 367 375 379 374 368 366 368 367 365 364 363 361 361 362 364 365 364 366 369 369
315 316 319 323 324 320 317 320 322 324 326 325 320 313 308 311 314 313 317 320 321 328 339 342 339 338 341 346 342 339 348 353 353 361 368 372 374 373 375 373 370 372 374 376 381 382 376 368 368 368 368 366 365 363 362 361 362 363 363 363 364 368 370
321 325 328 330 328 321 318 319 320 322 325 325 320 312 313 319 313 308 321 333 322 323 336 341 342 341 341 344 342 339 348 354 349 351 366 374 374 372 377 378 376 382 387 386 385 383 377 369 367 369 368 366 365 363 361 359 359 361 362 362 364 368 371
325 329 328 330 329 325 324 323 321 322 323 322 318 316 319 323 315 311 325 338 329 328 333 335 339 344 341 342 343 341 342 345 349 360 369 370 369 371 373 376 379 384 389 391 388 384 379 372 368 369 369 367 365 363 362 358 357 360 361 361 363 368 370
325 328 328 330 329 326 325 324 324 325 324 323 320 321 323 323 321 322 328 335 333 331 332 332 336 339 338 341 344 342 341 339 347 361 362 355 360 367 370 374 378 381 386 389 387 385 383 375 370 370 369 368 367 365 363 360 358 359 361 361 363 368 371
321 326 329 329 328 326 323 323 326 326 325 325 322 323 324 322 322 325 326 328 329 330 332 333 334 336 337 341 342 341 344 344 343 349 348 342 350 362 368 371 373 377 383 385 385 385 383 378 373 370 370 369 367 366 365 362 360 361 362 363 364 367 371
317 325 327 325 326 327 320 319 325 325 323 324 323 324 326 322 321 323 321 319 324 331 333 332 335 336 335 337 338 339 345 345 342 342 343 343 353 364 370 372 373 376 378 380 382 381 378 377 374 370 372 371 367 367 367 364 362 363 365 366 365 367 372
316 323 325 324 323 320 316 318 325 326 326 327 325 327 329 327 325 322 318 319 329 337 335 332 333 333 335 338 338 339 345 353 353 348 343 344 350 360 370 374 374 373 372 374 378 378 375 374 374 371 372 372 369 368 368 367 363 364 368 369 366 368 372
315 321 323 323 320 315 318 326 329 329 329 328 326 326 329 330 329 327 325 328 334 337 334 332 334 335 339 343 344 343 346 352 358 354 347 345 343 349 364 372 372 372 373 375 377 377 377 374 372 371 371 371 371 369 369 369 365 365 371 371 369 370 373
315 319 322 319 316 319 326 332 334 331 329 330 329 329 330 330 330 332 334 334 334 335 333 332 335 339 340 338 340 341 339 342 347 345 346 350 346 346 360 371 374 376 378 379 379 379 377 373 372 372 372 372 371 370 371 370 367 368 372 372 371 372 373
318 317 318 318 320 326 331 333 333 333 333 332 329 325 328 331 329 331 337 337 338 341 337 331 333 336 335 334 337 339 335 335 338 336 337 342 342 343 352 364 378 383 379 377 379 379 376 373 372 372 372 372 371 372 373 371 370 373 374 374 374 373 374
320 316 315 320 323 324 328 333 334 336 337 336 331 326 330 335 331 333 341 342 340 341 338 334 336 337 333 333 336 335 331 332 334 333 333 333 335 340 343 348 366 379 377 374 378 379 376 373 371 371 373 372 372 374 374 372 373 375 375 375 376 375 375
320 318 317 321 320 318 326 334 337 338 336 336 337 332 331 338 337 338 344 345 341 341 341 341 345 346 342 338 335 332 331 330 331 330 330 332 331 336 340 338 351 371 376 374 375 378 377 373 372 373 374 372 374 376 375 373 374 376 377 378 377 376 377
319 318 319 321 319 321 332 341 341 338 334 335 338 328 326 342 348 344 346 346 343 345 347 347 349 348 345 340 336 333 331 331 331 332 333 333 331 334 338 333 342 366 375 373 374 378 378 375 374 375 374 374 376 377 376 375 374 376 378 378 378 377 377
321 321 321 322 322 327 339 342 338 336 336 337 334 322 325 346 355 346 346 348 347 349 351 351 350 347 345 344 342 337 333 331 332 335 338 339 337 337 336 334 350 370 374 375 379 380 377 376 376 374 374 376 377 377 377 376 375 377 377 377 377 376 374
324 324 322 321 325 334 343 340 336 337 337 333 327 324 335 350 349 344 346 346 345 350 351 352 353 351 348 346 342 336 333 334 338 341 345 351 349 338 335 351 370 377 376 376 380 377 375 376 375 375 376 377 377 377 377 377 376 376 376 376 376 374 372
322 324 324 321 324 334 339 336 334 337 334 328 328 336 345 347 343 343 346 345 346 350 350 351 353 352 348 346 343 340 340 342 346 347 350 357 357 351 355 368 374 375 375 379 379 376 374 376 375 375 377 377 378 378 377 377 376 375 375 375 374 372 370
322 321 321 321 324 332 333 335 337 337 335 334 340 346 344 342 343 345 347 347 350 350 349 349 350 349 348 348 348 348 348 350 351 351 355 365 367 366 369 372 369 371 378 380 377 373 373 373 374 376 377 378 378 377 376 376 374 373 374 373 371 369 367
320 317 320 325 332 335 332 337 342 343 341 343 346 344 341 341 343 343 345 348 349 349 350 352 350 349 349 352 355 356 356 356 355 355 361 369 369 366 367 368 367 371 376 377 373 371 371 372 373 374 377 376 375 374 374 373 372 372 371 369 367 365 363
328 326 330 335 341 341 336 338 342 342 341 340 340 340 340 340 340 341 345 348 348 351 354 356 355 354 353 355 358 358 358 359 360 361 365 369 367 364 364 366 368 370 372 373 372 371 372 372 372 373 374 373 372 373 372 370 369 369 367 365 363 362 361
342 341 342 341 341 340 336 336 338 337 336 336 337 340 339 339 341 344 346 348 349 351 352 354 355 354 354 356 356 355 356 359 360 363 365 365 364 365 366 367 369 369 369 370 370 371 371 372 372 372 371 370 371 370 368 367 367 365 364 362 361 360 359
344 346 346 344 343 343 339 336 337 336 335 336 337 339 339 340 343 346 346 347 348 348 349 352 352 349 348 350 350 349 349 351 351 353 357 361 364 366 368 368 368 368 368 368 368 370 372 372 371 369 368 367 367 366 365 364 363 362 361 360 359 358 357
343 343 344 343 341 341 340 338 338 337 336 337 337 338 339 340 340 341 340 341 342 342 344 346 347 347 345 346 347 346 346 346 346 347 350 352 353 358 365 367 367 367 368 368 368 369 369 368 367 366 365 364 363 363 362 361 359 359 358 357 357 356 354
343 341 342 343 341 341 339 338 337 337 336 336 335 335 335 336 336 336 335 335 336 336 337 339 342 344 344 343 345 345 344 344 343 344 347 347 344 345 351 356 360 364 365 364 364 364 363 362 363 363 362 361 360 360 360 358 357 356 355 355 354 353 351
343 342 342 343 343 342 340 338 336 335 334 333 333 332 332 332 332 332 332 332 332 332 333 334 338 341 342 342 343 344 345 345 343 343 345 345 342 342 343 345 350 355 358 358 360 360 359 358 358 359 359 359 358 358 358 356 355 354 353 353 352 351 351
341 341 341 342 342 340 338 336 335 334 333 331 331 331 330 330 329 329 329 329 329 329 329 330 333 337 341 342 343 344 346 344 343 344 345 343 342 342 343 344 346 351 356 358 359 358 358 357 357 357 357 358 357 357 356 355 354 353 353 352 351 350 349
339 339 339 339 338 335 333 332 332 333 331 331 330 330 329 329 328 328 327 327 326 326 327 327 328 331 333 334 337 341 342 342 342 343 345 346 345 345 346 347 350 354 359 360 359 358 358 357 357 357 357 357 358 358 356 355 354 354 353 351 350 349 348
337 337 336 334 333 331 330 329 330 330 329 330 329 329 328 327 326 326 326 326 324 324 325 325 326 327 327 328 331 334 335 336 337 338 340 344 347 349 351 352 354 357 359 358 358 358 357 357 357 358 358 357 357 357 356 356 355 353 352 350 349 348 347

ECMWFFLT2_925_thetae_033.txt.gz
Theta_e
328 328 328 330 324 318 320 319 313 316 324 322 313 313 315 313 315 316 313 316 324 329 335 338 337 342 345 343 343 345 348 349 350 350 350 350 351 352 353 357 358 358 358 355 354 353 354 355 355 356 357 357 359 362 364 365 365 364 364 363 363 363 363
327 328 328 330 327 324 320 313 315 322 325 322 316 312 313 314 315 315 313 314 319 319 326 336 337 343 347 344 344 347 348 349 350 352 352 351 353 352 352 356 358 357 358 356 354 354 354 356 356 356 357 357 359 360 363 364 365 365 365 364 364 363 363
327 328 326 325 326 327 323 318 323 323 314 312 313 311 312 314 314 314 313 315 317 317 323 332 333 340 348 345 343 347 348 347 348 350 353 354 353 353 352 353 355 356 357 356 354 353 354 356 356 356 356 357 358 360 363 364 364 366 365 365 364 363 363
327 327 323 318 319 325 325 323 325 323 316 313 313 311 312 314 315 314 315 315 316 325 337 337 335 338 343 345 345 345 345 345 345 347 351 353 353 353 352 351 353 354 354 355 354 353 354 356 356 357 357 357 358 359 362 364 365 365 366 365 365 364 363
324 321 322 320 320 322 320 318 317 316 318 317 316 314 312 313 314 314 316 316 316 333 349 344 344 344 338 342 346 345 345 344 343 347 351 351 352 352 351 349 351 353 354 354 353 353 355 357 357 357 357 357 358 359 361 363 365 365 366 366 365 364 364
316 319 327 327 325 325 321 318 316 316 317 314 312 314 313 311 311 311 315 317 320 338 345 340 350 352 341 341 345 344 345 343 343 347 350 350 351 351 350 349 349 351 356 356 354 355 356 357 359 357 357 358 357 359 360 362 365 366 366 367 366 365 365
320 325 329 328 326 328 326 323 323 322 320 313 309 312 315 312 310 312 314 315 324 342 347 342 346 353 348 343 345 346 343 341 345 348 349 350 351 350 349 348 349 352 356 356 355 356 356 357 358 358 357 358 357 359 360 361 364 366 366 367 366 365 364
326 328 329 328 328 328 324 323 325 324 321 317 314 319 323 316 310 312 314 313 321 335 351 356 352 355 353 342 342 345 341 340 343 347 351 351 352 353 352 350 352 355 356 357 359 360 359 357 358 359 358 358 358 358 359 361 362 365 366 367 367 366 365
319 322 324 324 323 324 324 324 325 324 324 322 319 319 321 317 313 314 314 315 324 336 343 346 344 347 350 345 344 343 344 343 340 345 353 353 353 355 354 352 353 356 357 358 361 363 361 357 358 359 358 358 358 357 358 359 361 363 365 366 367 367 366
315 315 317 319 320 321 323 325 325 325 324 322 319 313 311 315 319 318 315 316 329 344 338 331 333 337 341 348 348 343 348 350 342 349 356 354 356 357 355 355 355 357 361 361 363 366 362 359 360 359 359 359 358 358 358 358 359 362 364 365 367 367 367
317 318 322 329 329 321 318 322 324 325 327 323 321 314 309 314 318 318 323 326 327 337 340 333 333 331 335 352 351 342 357 364 357 362 360 355 358 358 353 355 357 360 365 365 366 368 363 360 361 360 360 360 359 358 357 357 358 361 363 365 367 368 368
324 330 332 332 332 323 318 321 322 324 328 325 320 314 314 319 314 311 328 337 327 334 346 341 341 337 337 357 360 348 361 377 373 370 362 355 357 356 353 355 359 363 366 367 366 366 362 360 361 363 361 360 360 358 357 357 358 361 363 365 367 368 368
325 330 330 329 331 327 325 324 323 324 326 323 320 317 322 327 317 312 326 336 332 342 346 341 350 354 347 356 365 356 355 365 369 367 362 357 354 353 354 357 363 365 365 366 366 364 363 360 360 363 363 361 361 359 358 358 358 360 363 365 367 368 368
324 326 327 329 327 325 325 325 325 326 326 325 323 323 325 328 325 324 330 337 341 346 337 329 339 354 355 355 359 354 347 357 369 368 362 359 356 355 356 358 362 365 363 364 366 366 367 364 361 362 364 363 362 360 359 359 359 360 362 364 366 367 367
322 324 326 327 325 324 322 323 328 327 325 325 323 324 326 324 325 330 331 333 340 346 341 332 332 344 351 348 348 351 352 360 370 368 362 362 363 365 366 364 363 365 365 366 369 371 372 368 363 362 364 364 363 362 362 360 359 360 362 364 365 366 367
320 325 326 325 325 325 319 318 325 326 323 323 322 324 326 324 324 328 326 324 333 344 345 337 335 339 341 342 348 356 358 357 359 363 367 370 371 372 373 368 367 370 374 374 374 375 374 368 363 363 365 365 364 363 363 361 360 361 361 363 364 365 366
319 324 325 324 322 318 315 318 325 327 328 328 327 326 329 327 324 324 324 330 343 353 347 339 337 335 330 335 347 353 355 355 354 356 361 364 366 371 373 369 367 371 376 378 377 375 372 367 365 365 365 366 365 364 363 362 361 360 362 363 363 364 366
319 323 325 326 322 316 317 325 329 330 330 331 329 329 330 330 329 327 331 341 350 349 345 343 345 340 333 340 349 351 353 362 364 360 360 360 357 362 367 368 368 370 375 379 376 372 370 367 365 365 366 366 365 365 364 363 361 360 361 362 362 363 365
320 324 325 322 320 322 328 333 334 331 332 331 330 331 332 331 331 334 339 344 350 350 347 347 348 350 351 353 352 349 351 363 371 367 365 368 364 360 363 366 366 367 372 378 378 372 368 368 366 365 366 366 366 365 364 363 361 359 360 362 362 363 365
320 321 322 321 324 331 336 338 335 333 337 336 330 329 335 338 338 344 350 351 353 355 351 351 353 354 354 352 349 346 344 352 359 356 354 360 361 359 363 367 368 368 367 368 373 372 368 367 368 366 365 367 366 366 366 364 362 360 360 362 362 362 365
321 318 317 321 324 327 332 335 334 337 341 344 340 334 338 348 350 352 358 356 353 354 353 354 357 357 357 360 357 347 339 338 343 345 344 345 345 350 362 367 365 363 362 362 364 367 368 368 368 367 367 367 367 366 367 366 363 362 363 364 363 363 365
323 319 317 321 319 319 330 336 335 339 339 343 353 349 345 355 358 354 357 358 358 362 362 360 361 360 359 363 362 352 342 340 338 335 334 333 331 337 354 367 368 361 361 364 364 365 368 368 368 369 367 368 368 367 367 367 366 365 366 367 365 364 366
324 318 317 319 316 320 338 344 339 340 338 341 349 342 340 358 364 352 353 358 359 363 365 367 370 368 362 362 361 354 346 344 341 339 339 336 334 332 336 349 362 364 361 361 363 366 369 368 368 369 368 368 369 368 368 369 367 366 368 369 367 366 368
328 324 320 319 319 330 346 343 338 341 341 343 341 329 336 361 364 352 353 357 357 360 363 366 370 368 364 364 359 351 348 348 346 346 346 345 347 352 345 337 341 353 360 365 366 367 368 369 369 369 368 369 369 368 369 369 367 367 369 370 369 368 369
327 327 324 321 324 340 352 344 340 341 340 340 335 333 350 366 357 352 355 354 354 358 359 362 365 362 359 358 354 352 355 357 353 352 356 359 362 367 365 354 342 341 348 360 369 368 369 370 369 369 369 369 368 368 369 369 368 368 369 370 370 370 371
326 327 331 331 333 343 349 344 340 338 337 338 339 347 359 358 350 352 355 352 356 359 359 362 362 358 356 356 356 356 357 358 357 355 362 374 377 376 376 371 361 352 351 358 365 369 371 370 369 370 370 369 368 369 369 369 369 368 370 372 372 372 374
326 324 328 335 339 341 337 339 347 348 346 350 356 356 352 347 348 353 354 355 359 360 360 361 359 357 358 357 356 355 353 354 355 353 353 357 364 373 380 374 366 368 374 373 369 370 372 371 370 370 370 369 369 370 370 370 370 370 372 373 373 373 373
335 330 328 334 344 347 340 345 356 356 353 356 358 351 346 348 350 352 355 357 357 357 358 357 354 355 356 354 353 353 351 350 351 351 351 349 348 355 364 362 357 361 369 369 367 370 373 373 372 372 371 371 371 370 371 371 371 373 375 374 373 373 372
340 341 339 340 347 350 345 346 350 347 344 346 348 346 350 352 351 352 353 352 352 353 353 351 350 352 352 351 351 350 348 348 347 347 348 347 346 348 352 352 350 350 353 354 354 361 370 373 374 373 372 371 371 372 372 373 374 375 375 373 372 371 369
341 345 346 342 344 345 341 342 342 339 340 343 346 348 350 348 346 346 346 346 348 349 347 347 348 348 348 348 348 347 346 346 345 346 345 344 344 345 347 349 349 348 351 353 350 353 365 373 375 376 375 373 372 373 374 374 375 374 372 370 369 367 366
342 347 350 346 343 343 341 340 340 340 340 340 341 343 343 342 341 340 340 342 343 343 343 343 343 342 343 345 346 347 346 344 343 344 344 342 343 345 345 346 346 347 356 366 358 349 353 362 367 369 368 368 370 372 373 373 372 370 368 366 364 363 362
343 346 347 344 341 340 338 338 338 338 339 337 336 337 337 336 336 335 335 337 337 338 340 341 339 338 339 340 343 345 345 345 345 344 342 341 343 343 343 344 344 345 352 361 356 346 345 349 353 355 355 355 359 364 367 369 367 365 363 362 360 359 358
343 345 344 342 342 340 338 338 337 334 334 334 333 333 333 332 332 332 331 331 330 332 334 336 338 338 336 336 338 339 340 342 345 344 342 341 341 342 343 343 344 344 345 346 346 345 345 346 348 351 351 350 351 354 358 361 361 360 358 357 356 355 354
344 346 343 342 343 342 339 339 338 335 332 331 331 331 330 330 330 330 330 329 328 328 329 331 333 334 334 335 335 334 335 339 343 345 343 340 339 340 341 341 341 344 344 343 343 344 345 345 347 349 349 348 347 348 351 354 354 353 353 353 353 352 352
344 343 341 342 343 341 338 335 335 335 332 330 330 329 328 327 328 328 328 328 328 327 326 327 329 330 330 330 330 332 333 335 339 343 345 343 340 340 340 340 341 342 344 345 344 344 344 345 348 349 349 348 347 346 348 349 349 349 350 350 350 350 350
340 339 339 340 340 338 335 333 331 332 332 330 328 328 328 327 326 327 327 327 327 327 325 325 327 328 327 326 326 329 332 333 336 338 340 342 342 341 341 342 342 343 344 344 343 342 343 345 347 348 347 347 347 347 347 347 348 349 349 349 349 349 349
338 337 337 337 336 335 333 330 328 330 330 330 330 330 329 329 327 327 327 327 326 325 325 324 325 326 327 326 326 327 330 333 334 333 333 334 337 340 343 344 343 343 344 344 343 344 345 346 350 351 350 349 349 350 349 349 350 350 349 349 349 348 347